Starlink 31323

operational
NORAD ID: 58882 Int'l Des: 2024-020 Owner: SPXS Country: US Constellation: starlink
LEOCIRCULAR

Starlink 31323について

説明を読み込み中...

リアルタイム位置

3D地球を読み込み中...

次回通過

高度履歴

Altitude vs Time

uPlot chart will show altitude changes over time

軌道要素

1 58882U 24020G 25258.71950973 .00005124 00000-0 18498-3 0 9997
2 58882 53.1605 55.0521 0001083 91.5922 268.5203 15.30206375 91289
Epoch: Sep 15, 2025 • Age: 25 hours

現在のステータス

高度 478.2 km
速度 7.63 km/s
衛星直下点 39.97°N, 174.14°E
打ち上げ日 Jan 29, 2024
運用期間 1.6 years
タイプ internet

技術仕様

分類 Payload
質量 730.00 kg
乾燥質量 700.00 kg
総質量 730.00 kg
長さ 0.30 m
直径 4.10 m
スパン 29.00 m
形状 Box + pan
製造者 SPXS
バスタイプ Starlink V2M
フェーズステータス In Orbit
所有者/国 SPXS/US

大規模コンステレーション

Loading constellations...